Regional Weather Roundup
Issued by NWS

Home | Current Version | Previous Version | Graphics & Text | Print | Product List | Glossary On
Versions: 1 2 3 4 5 6 7 8 9 10 11 12 13 14 15 16 17 18 19 20 21 22 23 24 25 26 27 28 29 30 31 32 33 34 35 36 37 38 39 40 41 42 43 44 45 46 47 48 49 50
000
ASUS45 KPSR 010310
RWRAZ

ARIZONA REGIONAL HOURLY WEATHER ROUNDUP
NATIONAL WEATHER SERVICE PHOENIX AZ
800 PM MST TUE SEP 30 2014

NOTE: FAIR INDICATES FEW OR NO CLOUDS BELOW 12,000 FEET WITH NO
SIGNIFICANT WEATHER AND/OR OBSTRUCTIONS TO VISIBILITY.

AZZ001>003-036-010400-
NORTHWEST ARIZONA

CITY           SKY/WX    TMP DP  RH WIND       PRES   REMARKS
BULLHEAD CITY  CLEAR     84  37  18 S3        29.71R
KINGMAN        CLEAR     67  40  37 S10       29.87R
$$

AZZ004>008-015-016-018-010400-
NORTH CENTRAL ARIZONA

CITY           SKY/WX    TMP DP  RH WIND       PRES   REMARKS
GRAND CANYON   CLEAR     46  41  82 CALM      30.04R HAZE
PRESCOTT       CLEAR     62  36  37 SW9       29.97R
FLAGSTAFF      CLEAR     50  37  61 SW7       30.07R
PAYSON         CLEAR     61  41  48 N5        30.00R
$$

AZZ009>014-017-010400-
NORTHEAST ARIZONA

CITY           SKY/WX    TMP DP  RH WIND       PRES   REMARKS
WINSLOW        CLEAR     62  41  46 SW8       29.93S
SAINT JOHNS    CLEAR     57  39  51 S5        29.99R
WINDOW ROCK    CLEAR     52  36  54 S5        30.04R
SHOW LOW       CLEAR     54  37  54 S7        30.06R
$$

AZZ023-010400-
GREATER PHOENIX AREA

CITY           SKY/WX    TMP DP  RH WIND       PRES   REMARKS
PHOENIX        CLEAR     82  46  28 CALM      29.75R
BUCKEYE          N/A     75  46  35 CALM      29.76R
GLENDALE       CLEAR     79  54  41 SE3       29.76S
LUKE AFB       CLEAR     81  44  26 S3        29.75R
DEER VALLEY    CLEAR     78  46  32 CALM      29.77R
SCOTTSDALE     CLEAR     79  45  29 CALM      29.79R
MESA-FALCON    CLEAR     79  41  25 CALM      29.77R
MESA-GATEWAY   CLEAR     75  50  41 CALM      29.79S
CHANDLER       CLEAR     79  48  34 S7        29.77R
$$

AZZ027-028-010400-
SOUTHWEST MARICOPA COUNTY AND PINAL COUNTY

CITY           SKY/WX    TMP DP  RH WIND       PRES   REMARKS
CASA GRANDE    CLEAR     73  43  33 CALM      29.79R
$$

AZZ503-504-507>509-010400-
SOUTHEAST ARIZONA

CITY           SKY/WX    TMP DP  RH WIND       PRES   REMARKS
TUCSON         CLEAR     79  35  20 CALM      29.86S
DAVIS-MONTHAN  CLEAR     74  38  26 NW5       29.85R
RYAN FIELD       N/A     73  37  27 SW6       29.85R
NOGALES        CLEAR     62  46  55 CALM      29.94R
SIERRA VISTA   CLEAR     64  41  42 SW9       29.98R
DOUGLAS        CLEAR     64  41  42 W7        29.94R
SAFFORD        CLEAR     69  33  26 W7        29.84R
$$

AZZ020-021-025-026-031-010400-
SOUTHWEST ARIZONA

CITY           SKY/WX    TMP DP  RH WIND       PRES   REMARKS
YUMA           CLEAR     85  39  19 S8        29.70R
$$

CAZ031-033-041-043-047-048-061-010400-
SOUTHERN CALIFORNIA

CITY           SKY/WX    TMP DP  RH WIND       PRES   REMARKS
DOWNTOWN L.A.  CLEAR     71  59  65 CALM      29.76S
L.A. AIRPORT   CLEAR     68  62  81 W8        29.77S
SAN DIEGO      PTCLDY    72  65  78 SW3       29.80R
BURBANK        CLEAR     74  53  48 CALM      29.77R
ONTARIO        CLEAR     77  54  44 SW9       29.78R
RIVERSIDE      CLEAR     77  53  43 W5        29.78R
PALM SPRINGS   CLEAR     86  40  19 CALM      29.71R
EL CENTRO NAS  CLEAR     80  48  32 SE5       29.67R
IMPERIAL       CLEAR     87  43  21 CALM      29.67R
BLYTHE         CLEAR     83  33  16 CALM      29.69S
NEEDLES        CLEAR     85  32  15 SW9       29.72R
$$

NVZ020-UTZ003-010400-
SOUTHERN NEVADA-UTAH

CITY           SKY/WX    TMP DP  RH WIND       PRES   REMARKS
LAS VEGAS      CLEAR     81  37  20 S5        29.72S
SALT LAKE CITY MOCLDY    53  48  83 SW6       29.94R
$$

NMZ009-TXZ055-010400-
NEW MEXICO-WEST TEXAS

CITY           SKY/WX    TMP DP  RH WIND       PRES   REMARKS
ALBUQUERQUE    CLEAR     67  31  26 N9        29.95R
EL PASO        CLEAR     78  46  32 NW12      29.87R
$$


........................KEY........................
SKY/WX - SKY CONDITION/WEATHER
TMP    - TEMPERATURE IN FAHRENHEIT
DP     - DEW POINT IN FAHRENHEIT
RH     - RELATIVE HUMIDITY IN PERCENT
WIND   - DIRECTION AND SPEED IN MILES PER HOUR (MPH)
VRB    - VARIABLE WIND DIRECTION
PRES   - MEAN SEA LEVEL PRESSURE IN INCHES OF MERCURY
         F - FALLING PRESSURE   R - RISING PRESSURE
         S - STEADY PRESSURE
VSB    - VISIBILITY IN MILES
HX     - HEAT INDEX IN FAHRENHEIT
WCI    - WIND CHILL INDEX IN FAHRENHEIT
TC     - TEMPERATURE IN CELSIUS WHICH IS ALSO KNOWN AS
         TEMPERATURE IN CENTIGRADE
AFB    - AIR FORCE BASE
         LUKE AFB IS LUKE AIR FORCE BASE
         DAVIS-MONTHAN IS DAVIS-MONTHAN AIR FORCE BASE
NAS    - NAVAL AIR STATION
         EL CENTRO NAS IS EL CENTRO NAVAL AIR STATION
N/A    - NOT AVAILABLE



USA.gov is the U.S. government's official web portal to all federal, state and local government web resources and services.